Bellingham, WA

2:38 PM PDT on June 25, 2017 (GMT -0700)
Bellingham International

Weather History for KBLI - April, 2014

Change the Weather History Date:

Wednesday, April 16, 2014

  Actual Average Record
Temperature  
Mean Temperature 51 °F 48 °F  
Max Temperature 54 °F 57 °F 78 °F (1990)
Min Temperature 47 °F 40 °F 31 °F (1971)
Degree Days  
Heating Degree Days 14 17  
Month to date heating degree days 232 281  
Cooling Degree Days 0 0  
Month to date cooling degree days 0 0  
Year to date cooling degree days 0 0  
Moisture  
Dew Point 46 °F    
Average Humidity 85    
Maximum Humidity 93    
Minimum Humidity 77    
Precipitation  
Precipitation 0.49 in 0.09 in 0.79 in (1992)
Month to date precipitation 0.95 1.54  
Year to date precipitation 11.92 12.45  
Sea Level Pressure  
Sea Level Pressure 30.01 in    
Wind  
Wind Speed 9 mph (SSE)    
Max Wind Speed 17 mph    
Max Gust Speed 25 mph    
Visibility 9 miles    
Events Rain    
T = Trace of Precipitation, MM = Missing Value Source: NWS Daily Summary

Daily Weather History Graph

Daily Weather History Graph

Search for Another Location

Airport or City:

Trip Planner

Search our weather history database for the weather conditions in past years. The results will help you decide how hot, cold, wet, or windy it might be!

Date:

Astronomy

Apr. 16, 2014 Rise Set
Actual Time 6:17 AM PDT 8:03 PM PDT
Civil Twilight 5:43 AM PDT 8:37 PM PDT
Nautical Twilight 5:03 AM PDT 9:18 PM PDT
Astronomical Twilight 4:18 AM PDT 10:03 PM PDT
Moon 10:01 PM PDT (4/16) 7:02 AM PDT (4/16)
Length of Visible Light 14h 53m
Length of Day
13h 46m
Full, 98% of the Moon is Illuminated
Apr 16
Full
Apr 22
Last Quarter
Apr 28
New
May 6
First Quarter
May 14
Full

Hourly Weather History & Observations

Time (PDT) Temp. Dew Point Humidity Pressure Visibility Wind Dir Wind Speed Gust Speed Precip Events Conditions
12:03 AM 46.4 °F 44.6 °F 93% 30.05 in 9.0 mi Calm Calm - 0.00 in Rain Light Rain
12:28 AM 46.4 °F 44.6 °F 93% 30.05 in 9.0 mi Calm Calm - 0.01 in Rain Light Rain
12:53 AM 46.9 °F 44.1 °F 90% 30.06 in 10.0 mi Calm Calm - 0.02 in Rain Light Rain
1:53 AM 46.9 °F 45.0 °F 93% 30.06 in 7.0 mi Variable 3.5 mph - 0.03 in Rain Light Rain
2:53 AM 50.0 °F 44.1 °F 80% 30.04 in 10.0 mi SSE 11.5 mph 20.7 mph 0.00 in   Overcast
3:53 AM 48.9 °F 45.0 °F 86% 30.04 in 10.0 mi SSE 9.2 mph - 0.00 in Rain Light Rain
4:07 AM 48.2 °F 44.6 °F 87% 30.02 in 10.0 mi South 8.1 mph - 0.01 in Rain Light Rain
4:53 AM 48.9 °F 45.0 °F 86% 30.04 in 10.0 mi SSE 9.2 mph - 0.02 in Rain Light Rain
5:07 AM 48.2 °F 44.6 °F 87% 30.02 in 10.0 mi SSE 8.1 mph - 0.01 in Rain Light Rain
5:53 AM 48.9 °F 45.0 °F 86% 30.04 in 10.0 mi South 8.1 mph - 0.02 in Rain Light Rain
6:20 AM 48.2 °F 44.6 °F 87% 30.02 in 7.0 mi SSE 8.1 mph - 0.01 in Rain Light Rain
6:53 AM 48.9 °F 45.0 °F 86% 30.04 in 6.0 mi South 8.1 mph - 0.03 in Rain Light Rain
7:53 AM 48.9 °F 45.0 °F 86% 30.04 in 6.0 mi SSE 9.2 mph - 0.03 in Rain Light Rain
8:13 AM 48.2 °F 44.6 °F 87% 30.02 in 6.0 mi SSE 6.9 mph - 0.01 in Rain Light Rain
8:53 AM 50.0 °F 46.0 °F 86% 30.04 in 6.0 mi SE 6.9 mph - 0.03 in Rain Light Rain
9:53 AM 50.0 °F 46.0 °F 86% 30.04 in 6.0 mi SE 6.9 mph - 0.02 in Rain Light Rain
10:07 AM 51.8 °F 46.4 °F 82% 30.02 in 6.0 mi SE 5.8 mph - 0.01 in Rain Light Rain
10:34 AM 51.8 °F 46.4 °F 82% 30.03 in 6.0 mi Variable 5.8 mph - 0.02 in Rain Light Rain
10:53 AM 51.1 °F 46.9 °F 86% 30.05 in 6.0 mi ESE 5.8 mph - 0.03 in Rain Light Rain
11:07 AM 51.8 °F 46.4 °F 82% 30.03 in 8.0 mi SSE 4.6 mph - 0.01 in Rain Light Rain
11:53 AM 52.0 °F 46.9 °F 83% 30.04 in 10.0 mi SE 6.9 mph - 0.02 in Rain Light Rain
12:53 PM 52.0 °F 46.9 °F 83% 30.03 in 10.0 mi SE 11.5 mph - 0.01 in   Overcast
1:53 PM 53.1 °F 46.9 °F 80% 30.04 in 10.0 mi SE 10.4 mph - 0.00 in   Overcast
2:53 PM 53.1 °F 46.0 °F 77% 30.03 in 10.0 mi SSE 9.2 mph - 0.00 in   Overcast
3:00 PM 53.6 °F 46.4 °F 77% 30.00 in 10.0 mi SE 9.2 mph - 0.00 in Rain Light Rain
3:34 PM 53.6 °F 46.4 °F 77% 30.00 in 10.0 mi SSE 9.2 mph - 0.00 in Rain Light Rain
3:53 PM 53.1 °F 46.0 °F 77% 30.02 in 10.0 mi SSE 12.7 mph - 0.00 in Rain Light Rain
4:01 PM 53.6 °F 46.4 °F 77% 29.99 in 10.0 mi SSE 10.4 mph - N/A   Overcast
4:53 PM 54.0 °F 46.0 °F 75% 30.01 in 10.0 mi SSE 17.3 mph 25.3 mph 0.00 in   Overcast
5:53 PM 54.0 °F 46.0 °F 75% 30.00 in 10.0 mi SSE 9.2 mph 20.7 mph N/A   Overcast
6:24 PM 53.6 °F 46.4 °F 77% 29.97 in 10.0 mi SSE 13.8 mph 19.6 mph N/A   Overcast
6:34 PM 53.6 °F 46.4 °F 77% 29.97 in 10.0 mi SSE 12.7 mph 17.3 mph N/A   Overcast
6:53 PM 53.1 °F 46.0 °F 77% 29.99 in 10.0 mi SSE 10.4 mph - N/A   Overcast
7:35 PM 53.6 °F 46.4 °F 77% 29.96 in 10.0 mi South 11.5 mph - N/A   Overcast
7:53 PM 52.0 °F 46.9 °F 83% 29.98 in 10.0 mi South 11.5 mph 17.3 mph N/A   Overcast
8:18 PM 51.8 °F 46.4 °F 82% 29.95 in 10.0 mi SSE 6.9 mph - 0.00 in Rain Light Rain
8:53 PM 52.0 °F 48.0 °F 86% 29.97 in 10.0 mi SSE 6.9 mph - 0.01 in Rain Light Rain
9:11 PM 51.8 °F 48.2 °F 88% 29.94 in 10.0 mi SE 8.1 mph - 0.00 in Rain Light Rain
9:53 PM 50.0 °F 48.0 °F 93% 29.95 in 5.0 mi SE 4.6 mph - 0.05 in Rain Rain
10:53 PM 51.1 °F 48.0 °F 89% 29.93 in 7.0 mi SE 5.8 mph - 0.07 in Rain Light Rain
11:53 PM 52.0 °F 46.9 °F 83% 29.91 in 10.0 mi SE 8.1 mph 19.6 mph 0.06 in Rain Light Rain